Regional Weather Roundup
Issued by NWS Spokane, WA

Home | Current Version | Previous Version | Text Only | Print | Product List | Glossary On
Versions: 1 2 3 4 5 6 7 8 9 10 11 12 13 14 15 16 17 18 19 20 21 22 23 24 25 26 27 28 29 30 31 32 33 34 35 36 37 38 39 40 41 42 43 44 45 46 47 48 49 50
000
NZUS01 KOTX 201610
RWROTX
EASTERN WASHINGTON/NORTHERN IDAHO ROUNDUP
NATIONAL WEATHER SERVICE, SPOKANE WA
900 AM PDT SUN APR 20 2014

Note: "fair" indicated few or no clouds below 12,000 feet with no
significant weather and/or obstructions to visibility.

...NORTHEAST WASHINGTON AND NORTHERN IDAHO PANHANDLE...

CITY           SKY/WX    TMP DP  RH WIND       PRES   REMARKS
SPOKANE INTL   PTSUNNY   43  33  68 S10       30.25R
SPOKANE DOWNTO MOSUNNY   46  35  65 SW10      30.28R
COEUR D ALENE  CLOUDY    45  34  65 S13       30.27S
DEER PARK      SUNNY     44  33  65 S10       30.25S
SANDPOINT      DRIZZLE   43  34  70 S8        30.25R

...SOUTHEAST WASHINGTON AND SOUTHERN IDAHO PANHANDLE...

CITY           SKY/WX    TMP DP  RH WIND       PRES   REMARKS
WALLA WALLA    MOSUNNY   52  35  52 SW12      30.31S
PULLMAN/MOSCOW MOSUNNY   46  32  58 W13       30.30R
LEWISTON       SUNNY     52  28  39 VRB3      30.29S
LOWELL           N/A     47  40  76 CALM      30.33R

...COLUMBIA BASIN...

CITY           SKY/WX    TMP DP  RH WIND       PRES   REMARKS
EPHRATA        PTSUNNY   50  28  42 W3        30.24R
MOSES LAKE     MOSUNNY   50  30  46 SW5       30.27R
TRI CITIES     MOSUNNY   53  35  50 W5        30.32R
HERMISTON      CLOUDY    53  37  54 SW9       30.31S
PENDLETON      CLOUDY    48  35  60 S7        30.30S

...EAST SLOPES CASCADES...

CITY           SKY/WX    TMP DP  RH WIND       PRES   REMARKS
THE DALLES     MOSUNNY   46  37  71 E5        30.31
YAKIMA         PTSUNNY   49  32  52 CALM      30.28F
ELLENSBURG     MOSUNNY   49  31  49 NW14      30.25F
WENATCHEE      MOSUNNY   50  29  44 NW17      30.24S
OMAK           PTSUNNY   50  30  46 S6        30.22R

...SOUTHERN BRITISH COLUMBIA...

CITY           SKY/WX    TMP DP  RH WIND       PRES   REMARKS
PENTICTON      MOSUNNY   54  25  32 SE7       30.20S
CASTLEGAR      MOSUNNY   50  39  66 S9        30.19R
CRANBROOK      PTSUNNY   48  32  53 S18G25    30.10R

...WESTERN MONTANA...

CITY           SKY/WX    TMP DP  RH WIND       PRES   REMARKS
MISSOULA       CLOUDY    47  24  40 W8        30.26R

...NEIGHBORING CITIES...

CITY           SKY/WX    TMP DP  RH WIND       PRES   REMARKS
SEATTLE        PTSUNNY   49  37  63 SE9       30.30R
CALGARY        MOSUNNY   50  23  34 W13G20    29.92R



USA.gov is the U.S. government's official web portal to all federal, state and local government web resources and services.